Theta_e
340 340 343 343 344 347 336 333 339 340 340 341 342 341 341 341 341 342 342 342 342 342 342 342 341 341 343 343 341 342 340 335 330 326 325 328 328 328 332 334 335 335 335 335 335 337 337 337 337 338 338 337 336 336 337 337 337 337 337 336 337 337 337 336 336 335 334 334 334 333 332 328 323 319 318 317 317 318 321 330 335 336 332 326 328
341 340 344 344 345 346 336 334 339 340 339 340 341 341 341 341 341 342 343 343 343 342 342 343 343 343 343 342 341 340 335 330 328 327 330 333 333 331 334 336 335 334 334 334 335 336 336 336 335 335 336 335 336 336 337 337 336 336 334 333 334 335 334 333 331 330 329 329 331 332 332 328 323 321 321 318 318 317 321 326 330 335 328 324 328
341 342 344 345 345 344 335 333 339 340 339 339 341 341 340 341 342 343 343 343 343 342 343 343 343 343 343 342 341 337 331 330 331 334 337 336 334 334 336 335 335 334 334 334 334 335 335 335 335 334 335 336 336 336 336 336 334 331 330 329 330 330 328 328 326 326 325 329 334 337 337 332 324 321 323 320 319 318 320 322 322 329 325 324 330
341 343 343 345 344 343 335 332 338 340 339 339 340 342 339 341 342 343 343 342 343 342 343 343 343 343 342 342 339 333 332 335 338 339 339 339 337 336 337 336 335 334 334 334 334 335 335 335 335 335 336 336 336 336 335 334 333 331 332 332 332 329 327 326 326 325 326 332 337 338 338 337 329 321 322 322 320 318 318 322 320 322 321 324 330
342 343 343 345 344 343 335 332 338 340 339 337 339 341 339 341 342 343 343 342 342 342 342 342 343 343 342 342 337 334 337 339 340 340 339 340 339 337 337 336 334 333 333 333 334 335 335 335 336 336 336 336 336 336 335 334 335 335 335 335 333 331 330 328 327 326 329 334 336 336 334 336 334 324 321 323 321 319 318 321 320 319 320 324 332
343 343 342 344 345 344 337 333 337 339 338 336 337 340 339 340 342 343 342 342 342 342 342 342 343 342 342 342 338 338 340 340 339 340 340 341 340 338 337 336 335 334 334 334 335 336 336 337 336 337 337 337 336 336 336 336 336 335 334 333 333 332 332 331 329 329 333 336 336 336 334 334 336 328 321 324 321 320 320 321 322 320 319 323 332
343 343 343 343 345 344 338 335 337 339 338 336 335 338 339 341 342 342 342 342 342 341 342 342 343 343 343 342 341 340 339 339 339 340 340 341 341 338 337 337 336 335 336 336 337 337 337 337 337 337 337 337 337 336 336 335 334 333 332 332 332 332 332 332 330 331 336 338 336 335 335 334 337 331 322 323 321 320 321 325 326 323 320 322 330
342 343 343 343 345 344 339 336 337 338 337 334 335 339 340 341 342 342 342 342 342 342 342 342 343 343 343 342 341 340 339 339 340 340 340 339 335 331 333 335 336 336 337 337 337 338 338 338 338 337 337 337 337 335 333 332 331 332 332 332 332 332 332 332 330 333 337 337 335 334 336 335 337 333 325 323 322 321 323 330 332 328 324 320 326
342 342 341 342 345 343 339 336 337 337 334 334 337 340 340 341 342 342 342 342 342 342 342 342 342 342 342 342 341 341 340 340 340 340 339 336 332 330 329 330 335 337 338 338 338 338 338 338 338 337 337 337 335 332 330 331 332 333 332 331 331 331 331 331 331 335 339 337 335 335 334 335 337 334 328 325 323 323 323 331 333 331 328 321 322
341 342 341 343 345 343 339 336 337 335 332 335 339 340 341 342 342 342 343 342 342 342 342 342 342 342 341 342 341 341 341 340 340 340 339 337 335 334 331 329 333 338 338 338 338 338 338 338 338 337 336 335 332 330 330 332 333 333 332 331 330 330 330 330 333 337 338 336 335 334 332 334 337 335 329 327 325 324 324 327 328 328 327 322 322
341 341 340 343 344 341 338 335 333 332 333 337 340 341 342 342 342 343 342 342 341 341 341 341 342 342 342 342 341 341 340 340 340 339 338 337 336 334 332 332 334 338 338 338 338 338 338 338 338 335 333 332 331 329 330 332 333 333 333 332 331 330 330 331 336 337 336 335 335 334 332 334 337 333 329 328 327 326 326 326 325 325 325 323 323
341 341 341 344 343 340 338 333 330 333 338 339 341 342 342 343 342 342 341 341 341 341 341 341 341 340 340 340 339 339 339 338 338 338 337 336 336 334 330 333 335 336 338 339 339 338 339 338 336 333 332 331 330 330 331 333 333 334 333 332 332 331 330 332 337 335 335 335 334 336 335 335 335 331 329 329 328 327 327 326 327 326 326 325 324
340 341 341 344 342 339 336 332 333 338 340 340 341 342 342 342 342 341 341 341 341 341 340 339 338 338 337 337 337 337 336 335 334 335 336 334 334 334 331 333 335 336 337 337 337 336 336 335 333 332 332 330 329 330 331 333 333 334 333 331 331 332 331 332 336 335 334 335 335 336 335 336 335 329 328 330 329 329 328 327 327 327 326 326 325
340 341 341 343 342 339 334 333 338 341 341 341 341 342 342 341 341 341 341 341 340 338 336 335 335 334 333 333 333 333 332 331 332 332 333 332 331 334 333 333 335 335 335 334 333 332 332 331 331 331 330 328 328 330 331 331 333 334 332 330 329 330 333 334 335 335 334 334 335 335 335 337 334 328 327 329 330 329 329 328 328 327 327 327 326
340 341 341 342 342 339 334 336 340 341 342 342 341 342 342 341 341 342 341 340 337 334 333 333 331 330 328 327 326 324 322 323 326 330 333 332 332 333 333 334 334 335 334 333 331 328 328 329 329 329 328 328 328 329 330 330 330 333 333 332 330 328 331 336 335 334 335 334 334 334 335 336 333 330 328 328 329 330 329 329 328 328 328 328 327
341 340 341 341 341 339 337 339 341 341 342 342 342 342 342 342 341 341 340 337 333 331 332 332 329 325 322 320 318 316 314 313 317 326 332 332 333 334 333 333 332 332 333 332 330 327 326 326 327 327 327 327 328 328 329 329 328 330 333 332 332 330 329 333 334 334 334 333 333 334 335 335 333 331 330 328 329 329 329 329 329 329 329 328 328
340 340 341 341 341 340 338 340 341 341 341 341 341 341 341 341 341 340 337 334 331 333 333 330 326 320 317 318 318 313 311 309 311 322 329 331 333 332 330 330 329 330 331 330 329 327 326 326 326 326 327 327 327 327 327 328 327 327 330 331 332 331 330 331 334 334 334 334 333 334 335 335 333 331 331 329 328 329 331 331 330 330 329 329 329
339 340 340 340 341 339 339 340 340 341 341 341 341 341 341 340 340 338 336 334 333 334 333 328 322 319 320 324 324 321 317 312 311 318 325 329 331 328 326 327 328 329 330 330 329 328 327 327 327 327 327 327 327 327 326 327 327 327 329 330 331 330 330 330 334 333 334 336 334 335 336 335 332 332 331 330 329 328 332 334 332 332 331 331 330
339 340 340 340 340 339 340 340 341 342 342 342 341 340 340 340 339 337 336 335 334 332 330 324 322 325 327 329 330 329 325 316 311 313 317 324 326 324 324 325 327 329 330 330 330 329 328 328 328 327 327 326 326 326 326 327 328 329 329 330 330 329 330 331 333 332 332 335 334 335 336 334 332 332 332 331 330 328 332 334 334 334 333 333 332
339 339 339 339 340 339 340 341 343 343 343 343 342 341 339 339 338 337 337 335 333 330 325 321 325 331 331 331 332 333 332 326 319 315 313 316 320 322 322 324 326 328 329 329 329 329 328 327 327 327 327 326 326 327 329 330 330 330 330 331 330 330 332 332 332 331 332 334 335 336 334 332 332 333 332 332 331 329 332 333 333 334 335 335 335
339 339 338 339 339 339 340 342 343 343 344 344 343 342 339 339 338 337 336 333 329 326 323 324 329 331 330 332 334 335 335 334 332 328 323 316 314 317 319 321 324 326 327 327 327 326 325 325 324 324 325 326 327 329 330 330 331 331 331 332 331 332 334 333 332 333 334 334 335 335 333 332 332 333 333 332 331 330 333 333 332 335 336 335 335
338 338 337 338 339 339 340 342 343 344 344 344 344 342 340 340 339 338 336 333 329 328 330 333 335 333 332 335 336 336 336 337 337 335 333 326 315 313 316 319 323 325 325 325 324 324 323 322 322 323 324 325 326 330 331 330 330 330 330 331 332 333 334 335 335 335 335 335 336 334 333 333 332 333 333 333 332 331 334 333 332 335 335 335 335
337 337 337 338 339 338 341 342 343 344 343 343 344 343 341 341 341 340 338 336 335 335 336 336 336 335 335 336 337 338 338 339 338 334 334 331 320 314 316 318 321 322 322 322 322 322 321 320 320 323 325 325 328 332 332 331 331 331 331 332 333 334 335 337 337 337 337 335 335 334 333 333 333 333 333 333 332 332 335 334 333 334 335 335 335
337 337 337 337 339 339 341 342 342 343 343 343 343 343 342 341 340 340 338 338 337 336 336 336 336 337 337 338 339 339 340 339 337 335 336 335 330 325 323 322 322 322 322 327 328 326 325 323 321 324 328 330 331 332 330 332 332 332 333 334 335 336 337 338 337 337 337 335 335 334 333 334 334 334 333 333 332 333 336 336 335 335 335 335 335
338 337 337 337 339 340 341 342 342 342 342 342 342 343 342 341 340 339 338 337 337 336 337 337 337 338 338 338 339 339 340 340 338 339 341 341 339 338 335 335 335 332 331 337 337 335 335 333 330 330 334 334 334 334 334 335 335 335 336 337 337 337 338 337 338 338 337 337 336 334 335 335 335 335 335 334 333 333 335 335 335 334 335 336 335
338 338 338 337 339 340 341 341 341 342 342 341 341 342 341 340 340 339 337 336 336 337 337 337 338 338 339 339 340 340 340 340 340 341 341 341 341 341 341 341 341 339 339 341 340 339 340 338 338 337 338 337 337 338 338 338 338 337 337 338 338 338 338 337 338 338 338 338 337 335 335 335 336 336 336 336 335 334 334 335 335 335 336 336 335
338 338 337 337 339 340 340 341 341 342 341 341 341 341 341 340 339 338 337 335 335 337 338 338 338 338 339 340 340 340 340 340 340 340 340 341 341 341 341 341 341 341 341 341 341 341 340 340 340 339 339 339 339 339 339 339 338 338 337 337 337 337 337 337 338 339 338 337 336 335 335 336 336 336 336 337 337 337 337 337 336 336 336 335 335
339 338 337 337 339 339 340 341 341 341 341 341 341 341 340 339 339 338 336 335 336 337 337 338 338 339 340 341 341 340 340 340 340 340 340 340 341 341 341 341 341 341 341 341 341 341 340 341 340 339 340 339 339 339 339 339 338 338 337 337 337 337 337 337 338 339 339 336 334 334 335 335 335 335 335 336 337 337 337 337 336 336 336 336 336
339 338 337 337 338 339 340 340 341 341 341 341 341 341 340 339 338 337 335 336 337 337 337 338 339 339 340 341 341 341 341 341 341 341 341 341 341 342 342 341 341 341 342 342 341 341 340 340 339 339 339 339 339 338 338 338 337 337 336 336 336 336 337 337 337 338 337 335 333 332 333 333 334 335 335 335 336 337 337 337 337 336 336 335 335
339 338 337 337 338 338 339 339 340 340 340 340 340 340 340 339 337 336 336 337 337 338 338 339 339 339 339 340 340 340 341 341 341 341 342 342 342 342 342 342 342 342 342 341 340 340 340 339 339 338 338 338 338 337 337 337 336 335 335 335 336 336 336 336 335 335 335 334 331 331 331 332 332 333 333 334 335 335 335 335 335 335 335 335 335
339 338 337 337 337 338 338 339 340 341 340 340 340 340 339 338 337 337 337 338 338 338 339 339 339 339 339 339 339 340 341 341 341 341 342 343 342 342 342 342 342 342 341 340 340 339 339 339 338 338 338 337 337 336 336 336 335 334 335 335 335 336 335 335 334 333 333 332 331 330 329 329 330 330 330 331 332 332 332 331 332 333 333 333 333
340 339 338 337 338 338 338 340 340 341 340 340 340 340 339 338 338 338 338 338 338 339 339 339 339 339 339 339 340 340 340 341 341 341 342 342 342 342 342 342 341 341 340 339 339 339 339 339 338 338 338 337 336 336 336 335 335 334 334 334 334 334 333 332 331 330 330 330 329 329 328 327 327 327 328 328 328 328 329 329 329 329 330 330 330
341 340 338 338 338 338 339 340 340 340 340 340 340 340 339 338 338 337 338 338 339 339 338 338 338 339 339 339 339 340 340 341 341 341 341 342 341 341 342 341 341 340 340 339 339 339 338 338 337 337 337 336 336 336 336 335 335 335 334 334 333 331 330 329 328 327 327 327 327 326 326 326 325 325 325 325 325 324 324 324 324 325 326 327 327
341 340 339 338 338 339 339 340 340 339 339 340 340 339 339 338 337 337 338 338 339 339 338 338 338 339 339 339 340 340 341 340 341 341 341 341 341 341 341 340 340 339 339 338 338 338 337 336 337 336 336 336 335 335 335 335 334 334 333 332 331 329 327 325 324 324 324 324 324 323 323 323 324 323 322 322 321 319 318 317 317 318 319 320 321
341 340 339 339 338 339 339 340 340 339 339 340 340 339 338 338 337 337 338 339 339 339 339 338 339 339 338 339 339 340 340 340 340 340 340 340 340 341 340 339 338 338 337 337 336 336 336 336 336 336 336 335 335 334 333 334 333 332 331 330 328 326 323 322 321 321 321 321 321 320 320 320 320 320 319 319 317 315 314 314 314 313 313 314 314
341 340 339 339 339 339 339 339 340 340 339 340 340 340 339 338 337 338 338 339 339 340 340 339 338 338 338 339 339 339 339 339 339 340 340 340 340 340 338 337 337 336 336 336 335 335 335 335 335 335 335 334 334 333 332 333 333 331 330 327 325 323 320 319 317 317 317 317 317 317 316 316 316 315 316 316 314 311 309 308 309 308 307 308 308
341 340 340 339 339 339 339 339 339 339 339 339 339 339 338 337 337 338 338 339 339 340 339 339 338 338 338 339 339 339 338 338 338 338 338 338 338 337 337 335 335 334 334 334 334 334 334 334 333 332 333 333 333 332 331 332 331 329 327 324 322 320 318 316 314 314 314 314 314 313 313 313 312 311 311 311 309 307 305 302 303 302 300 301 302
341 340 340 339 339 339 339 339 339 339 338 337 337 337 337 337 337 338 338 339 339 339 339 338 338 338 338 338 339 338 337 337 337 337 336 336 336 336 335 334 333 333 333 333 332 332 332 332 332 330 329 330 331 330 330 331 330 327 324 322 320 318 315 313 312 311 311 311 311 310 310 309 308 308 308 308 306 305 304 303 304 304 300 296 296
340 340 340 339 339 339 339 339 338 338 337 336 336 337 336 336 337 338 338 339 338 338 338 338 338 338 337 338 338 337 336 336 336 336 335 335 335 334 333 332 331 331 331 331 331 331 331 330 330 329 327 327 327 328 329 330 328 325 323 320 319 317 314 311 310 309 309 309 309 309 308 307 306 306 306 306 306 305 304 304 304 305 304 299 296
340 339 339 339 339 339 339 339 338 337 336 335 335 336 336 336 337 337 337 338 337 337 337 337 337 336 336 337 337 336 335 335 335 335 334 333 333 331 330 329 328 329 330 330 330 329 329 328 328 328 327 327 325 326 328 328 326 323 321 320 317 316 313 311 309 308 307 307 307 308 308 307 306 306 306 305 306 305 304 304 303 304 304 303 300
339 339 339 339 339 339 338 337 337 336 336 335 335 336 336 336 337 336 337 337 336 336 336 336 335 334 335 335 335 334 334 333 333 332 331 330 329 328 327 327 327 327 327 327 327 326 326 326 326 325 326 327 325 326 327 327 325 323 322 320 318 315 312 311 309 308 306 306 306 306 307 307 306 306 306 305 305 304 304 303 303 303 303 303 303
339 339 339 338 338 338 338 337 336 336 336 335 335 336 336 337 337 336 336 336 335 336 335 334 334 334 334 333 333 333 332 331 330 329 328 327 326 325 326 326 327 327 326 325 324 324 324 325 326 324 323 324 323 325 326 326 326 325 324 322 320 317 313 309 308 307 306 306 306 306 306 306 306 305 305 304 304 303 303 303 302 302 303 303 304
340 339 338 337 337 338 338 337 336 336 336 335 335 336 337 336 336 336 336 335 334 333 333 333 334 334 334 332 332 332 331 329 328 327 327 326 325 325 326 326 325 325 325 325 324 324 324 324 325 324 322 320 320 321 324 326 327 325 325 324 323 321 318 312 308 305 305 305 305 305 305 305 305 304 304 304 303 303 302 302 302 302 302 303 303
339 339 337 335 336 338 337 337 336 336 336 336 336 336 337 337 337 336 335 334 332 331 332 333 332 332 331 330 330 330 328 327 326 325 325 325 325 325 325 324 323 322 323 323 322 322 323 323 323 323 322 319 318 318 319 322 325 326 326 326 325 325 324 319 312 307 305 305 305 305 305 305 305 304 303 303 303 303 302 302 303 302 303 303 303
337 337 336 335 337 338 337 337 337 337 337 337 337 337 337 336 335 334 333 331 330 329 330 329 329 328 328 327 327 327 325 324 324 323 323 323 323 322 322 322 321 320 320 320 320 320 321 322 321 321 321 319 316 315 315 315 318 321 322 324 325 323 321 320 317 311 306 305 306 305 305 305 305 304 303 302 302 303 303 302 303 303 303 303 303
335 336 337 336 337 338 337 337 337 337 337 337 337 337 336 335 334 333 331 330 329 329 329 327 326 325 325 325 325 323 323 323 323 322 322 321 320 320 320 320 319 318 318 319 319 320 320 320 319 319 318 317 316 313 311 309 309 310 311 314 318 320 318 318 318 312 305 304 305 305 305 305 305 304 303 302 302 302 302 302 302 302 302 302 302
335 336 336 334 335 337 337 337 337 337 337 337 336 336 335 335 335 334 332 331 331 330 328 327 326 325 325 324 323 322 322 322 323 322 321 320 319 319 319 318 317 316 316 317 317 317 317 317 317 316 316 317 317 314 312 309 306 306 306 305 307 311 314 316 316 313 309 307 305 304 304 304 304 304 303 301 301 302 302 302 302 301 302 302 301
336 336 335 333 333 335 336 336 337 337 337 336 336 336 335 335 335 334 333 333 332 330 328 328 327 325 323 322 321 321 322 322 322 321 320 319 319 318 318 317 315 315 314 315 315 315 315 314 313 313 313 315 316 315 313 310 307 306 306 305 304 306 309 310 311 312 312 311 307 305 305 304 303 302 303 302 301 302 302 302 301 301 302 302 301
337 336 336 334 333 335 336 336 336 336 337 336 336 335 335 335 335 334 334 333 330 328 327 327 326 324 322 321 321 322 322 322 321 320 319 318 318 317 316 315 314 313 313 313 313 313 312 312 311 310 309 309 311 311 311 309 308 308 308 309 309 307 307 308 309 309 310 309 307 307 307 307 305 303 302 302 302 302 302 301 301 301 301 301 301
336 336 336 335 334 335 336 336 336 336 336 336 336 335 335 335 335 334 333 330 328 327 326 324 323 322 321 321 321 321 322 322 320 319 318 318 317 316 315 314 313 313 312 312 311 310 309 308 306 305 305 306 307 308 308 308 309 309 309 309 310 309 308 308 308 308 308 308 307 306 305 306 307 305 302 302 302 302 302 302 301 301 300 301 300
336 337 337 336 335 335 336 336 336 336 335 336 335 335 335 335 334 333 331 328 327 326 325 324 323 322 321 321 321 321 322 321 319 318 317 317 316 315 314 313 312 312 311 311 310 308 307 305 303 303 304 305 306 306 306 307 307 307 307 307 307 307 307 307 307 306 307 308 307 306 305 304 305 305 303 303 303 303 302 301 301 301 300 300 300
Wind_Speed
14 15 17 21 18 17 18 16 15 14 13 13 13 14 14 13 12 12 12 13 14 14 15 15 17 17 16 15 16 15 14 13 13 13 13 13 13 13 12 12 12 12 12 13 13 14 14 14 13 12 12 12 13 13 13 13 12 13 13 13 13 13 12 11 10 10 10 10 10 11 12 12 12 13 14 13 13 12 12 13 12 9 8 10 10
16 16 17 19 18 17 18 16 15 15 14 13 14 14 14 13 12 12 12 13 13 14 15 16 16 16 15 15 15 14 14 13 13 13 12 13 14 14 14 13 13 13 13 13 14 14 15 15 14 13 13 13 13 13 13 12 12 13 12 13 13 12 12 11 11 11 10 11 12 13 14 13 13 13 14 14 13 13 13 12 11 10 8 10 11
18 16 17 18 18 16 18 17 15 15 14 14 14 14 13 13 12 12 12 12 13 14 15 15 15 15 15 15 15 14 14 13 13 12 12 13 13 14 14 14 13 14 13 14 14 14 15 15 15 14 14 14 13 13 13 13 13 13 12 13 12 12 12 12 12 12 12 12 13 13 13 14 14 14 14 14 14 14 13 12 11 10 10 11 11
17 17 17 17 17 16 18 17 15 14 15 14 14 14 14 13 12 12 12 13 14 14 15 15 15 15 15 15 14 14 14 13 12 11 12 13 13 13 14 14 14 14 14 15 15 15 15 16 16 15 15 14 14 14 14 14 14 13 12 11 12 12 12 13 13 13 14 14 14 11 8 9 12 15 14 14 14 14 13 12 12 11 11 11 11
17 17 17 17 15 16 17 17 15 14 15 15 14 14 14 13 12 12 12 13 14 14 14 14 14 15 15 14 14 14 13 12 12 11 12 14 13 13 14 13 13 13 14 16 16 16 16 16 16 16 15 14 14 13 13 13 12 12 11 11 11 12 13 13 13 14 15 16 15 11 7 7 9 14 14 14 14 14 13 12 12 12 11 11 11
16 16 17 17 15 15 17 16 14 14 14 14 14 14 14 13 11 12 12 13 13 13 13 13 14 14 14 13 13 13 12 12 11 10 12 14 13 13 14 13 13 14 14 15 16 16 16 16 16 15 14 13 13 12 11 10 9 10 10 10 10 11 11 12 12 12 14 15 13 9 7 8 7 12 14 13 14 14 13 12 13 12 11 11 10
15 16 17 17 15 15 16 16 14 14 13 13 14 15 15 12 11 12 12 12 12 13 13 13 13 13 13 12 12 12 12 12 11 10 11 14 14 13 13 13 13 13 14 14 15 15 15 15 15 14 13 12 11 10 10 9 9 9 10 11 10 10 10 10 11 11 14 12 8 6 7 8 7 10 14 13 13 13 12 13 13 13 12 10 10
14 15 15 15 15 15 17 16 14 13 12 14 15 15 14 12 12 12 12 12 12 13 12 13 13 13 12 12 11 11 12 11 10 9 11 12 11 11 12 13 13 13 13 14 14 14 14 14 14 13 12 11 10 10 10 9 10 11 11 11 11 10 9 10 9 11 14 9 5 6 6 7 7 8 13 13 12 13 12 12 13 13 13 10 9
14 14 14 14 14 15 17 15 14 13 13 16 16 14 13 13 13 12 13 12 12 12 12 12 12 12 11 11 11 11 11 10 10 9 11 10 10 10 11 12 13 13 13 14 14 14 13 13 12 12 11 10 10 11 10 10 11 12 12 12 11 10 9 9 8 9 9 6 5 7 5 5 7 7 11 13 12 12 12 11 8 9 10 11 9
14 14 13 14 14 15 17 16 14 13 15 16 15 13 13 13 13 12 12 11 11 11 12 11 11 11 11 10 10 10 10 10 10 9 9 8 9 9 11 12 13 12 12 13 13 13 13 12 11 11 10 11 11 11 10 11 11 12 12 12 10 9 8 8 9 8 5 4 5 6 8 8 7 7 10 12 12 11 11 10 7 6 9 11 10
15 14 13 14 14 15 17 16 15 16 17 16 14 14 13 13 13 12 11 11 11 11 11 11 11 10 10 10 9 9 9 9 9 8 8 7 7 7 10 13 12 11 11 11 11 11 11 11 10 10 10 10 10 10 10 10 10 11 11 11 10 9 8 8 7 5 4 4 4 4 6 8 6 6 9 11 11 11 11 10 10 10 11 11 10
14 14 14 14 14 15 17 16 17 18 17 15 15 14 13 12 12 11 11 11 11 11 11 10 10 9 9 9 8 8 8 8 8 8 8 8 7 7 10 12 12 11 11 10 11 10 10 10 10 10 10 9 9 9 9 9 9 10 10 10 9 9 9 9 6 3 3 3 4 3 3 5 4 5 8 10 10 10 10 10 11 11 11 11 10
15 14 14 14 14 16 17 18 19 19 17 15 15 14 13 12 11 12 12 11 11 10 10 9 9 8 8 8 8 8 7 8 8 8 8 9 9 9 10 11 11 11 10 10 9 9 9 9 10 9 9 8 8 8 8 8 8 8 8 9 9 9 10 10 6 2 3 2 3 3 3 4 3 4 6 8 9 9 10 10 10 10 11 11 10
15 14 14 14 13 16 18 19 20 18 17 15 15 14 13 13 13 13 12 11 11 9 9 8 8 7 7 7 7 7 7 8 8 9 8 9 11 11 10 10 11 11 11 10 9 9 8 8 8 8 7 7 7 7 7 6 6 6 6 7 7 8 8 7 5 3 3 2 2 2 2 2 2 4 5 7 8 8 9 9 10 10 10 10 10
15 15 15 14 14 16 18 20 20 18 17 16 15 14 14 13 13 12 11 11 9 8 8 7 7 6 5 5 5 5 6 6 8 9 9 10 11 12 10 10 10 11 11 11 10 9 8 8 7 7 6 6 6 5 5 4 4 4 4 4 6 7 7 4 3 4 3 2 2 2 2 2 3 4 5 6 6 7 8 9 9 10 10 11 11
14 14 14 14 15 16 17 18 19 18 17 16 15 15 14 13 12 11 11 10 8 7 7 6 6 5 5 4 4 4 5 5 7 9 9 10 11 12 11 9 10 10 11 11 11 10 9 8 7 6 5 5 5 4 4 3 2 2 2 2 3 5 5 4 3 4 3 3 3 3 3 3 4 5 5 6 6 6 7 8 9 10 11 11 11
13 14 13 14 15 16 16 16 17 18 17 16 15 15 14 13 12 11 10 10 8 7 7 6 6 6 7 7 8 7 7 7 8 8 9 9 11 12 12 11 11 11 11 11 11 10 9 8 7 6 5 5 4 3 3 2 1 1 1 1 2 3 4 5 4 4 4 4 4 3 4 3 5 6 6 6 6 7 6 7 9 10 11 11 10
13 13 13 14 15 15 16 16 16 17 16 15 15 14 13 12 12 12 11 9 8 7 6 6 7 9 11 11 10 10 10 9 9 8 8 8 9 12 14 13 12 11 11 11 10 10 9 8 7 6 6 5 4 3 3 2 1 1 1 2 3 3 4 5 4 4 4 4 4 4 4 4 5 6 6 7 7 7 6 6 9 9 10 10 11
12 12 13 14 15 15 15 15 16 17 16 14 14 14 13 13 12 12 10 9 8 7 7 7 9 11 12 12 11 10 11 11 11 10 9 9 9 12 13 13 12 11 11 10 10 9 9 8 7 7 6 5 5 4 4 3 1 0 1 2 3 3 4 5 5 5 5 4 5 5 4 5 6 6 6 6 7 7 7 7 8 10 9 9 10
12 12 12 14 14 15 15 14 15 17 16 14 14 15 14 14 13 11 10 8 7 7 8 9 9 10 11 12 11 10 9 11 12 11 10 10 10 10 11 12 11 10 10 10 9 9 8 7 6 6 6 5 5 5 4 3 2 1 0 1 2 2 3 4 5 5 6 4 5 5 5 6 6 6 6 6 7 7 6 7 8 10 11 9 10
12 12 12 13 14 15 15 14 15 16 15 14 15 15 15 14 13 11 9 8 8 9 9 9 8 9 11 12 11 8 7 8 9 10 10 10 10 10 10 11 10 10 9 9 8 7 6 5 5 5 5 5 6 5 3 2 1 1 0 0 1 2 2 4 5 5 6 5 5 5 6 5 5 6 6 7 8 7 7 8 8 10 12 11 11
13 13 12 13 15 15 14 14 15 15 14 14 15 15 15 14 12 11 9 8 9 10 9 8 7 8 9 9 8 7 6 7 8 8 8 8 9 10 10 10 9 8 7 7 6 5 5 4 3 4 4 4 5 4 3 2 1 1 1 1 2 2 3 4 5 5 6 6 6 6 6 5 5 5 6 6 7 6 7 9 8 8 11 12 13
14 13 13 15 15 15 14 14 15 14 13 13 14 14 14 13 12 11 10 10 10 9 8 8 7 7 6 6 6 6 5 6 7 8 9 8 9 10 10 9 8 7 6 5 4 3 3 3 3 3 2 2 3 4 4 2 1 1 1 2 2 3 4 4 4 5 5 6 7 6 5 5 5 5 6 6 6 5 6 10 9 9 11 12 12
14 13 14 15 15 14 14 14 15 14 13 12 12 13 14 13 12 11 10 11 10 8 8 7 7 7 7 6 6 5 5 5 7 7 8 8 8 8 8 7 6 5 5 4 3 2 3 3 3 2 1 1 2 3 3 1 1 1 2 2 3 3 4 4 4 5 5 6 6 5 4 5 6 6 6 6 5 4 5 9 10 10 12 12 13
13 13 14 16 15 15 15 14 15 14 13 12 12 12 13 12 11 10 9 10 9 8 8 7 7 7 7 6 5 4 4 5 5 5 5 5 5 5 5 5 4 4 4 3 2 2 2 2 2 2 1 1 0 1 2 2 2 2 2 2 3 3 4 4 4 5 6 6 5 5 5 6 6 6 6 6 6 5 4 7 9 10 12 14 14
13 13 14 16 16 15 15 14 15 14 13 12 12 11 12 11 11 10 9 9 9 9 8 8 7 7 6 6 5 5 4 4 4 4 4 4 4 4 4 4 4 4 3 2 2 1 1 2 1 1 1 0 0 1 2 2 3 2 2 2 2 3 3 4 4 5 6 6 5 5 6 6 6 6 7 7 7 6 5 6 8 9 10 12 12
12 12 14 15 16 16 15 14 14 14 13 12 12 11 11 11 10 10 9 9 10 9 8 8 7 7 6 5 5 5 4 4 3 3 3 3 3 4 4 4 4 3 2 1 1 1 0 1 1 1 0 0 0 1 1 2 2 2 2 2 3 3 4 4 5 4 6 8 7 6 6 6 6 6 6 7 9 9 8 8 7 7 8 8 9
12 12 14 15 16 16 16 14 14 14 13 13 12 12 12 11 10 9 9 10 10 9 8 8 7 6 5 5 4 4 4 3 3 3 2 2 3 3 3 3 3 3 2 2 1 1 1 1 1 0 1 1 1 1 1 2 2 2 2 3 4 4 4 4 4 5 6 9 9 7 6 6 5 6 6 8 10 11 11 11 11 10 9 9 9
13 14 14 15 16 16 16 15 14 14 14 13 13 12 12 11 10 9 10 11 10 9 8 8 7 6 5 4 4 3 3 3 3 2 2 2 2 2 3 3 3 3 3 2 2 2 1 1 1 1 1 1 1 2 2 2 2 2 3 3 4 4 4 4 4 5 6 9 10 8 6 6 6 5 5 7 8 9 11 11 12 13 13 12 11
14 15 15 15 16 16 16 15 15 14 14 14 13 13 12 11 11 10 10 10 9 8 8 7 6 5 5 4 3 3 3 3 3 2 2 2 2 2 3 3 3 3 2 2 2 2 2 2 2 2 2 2 2 3 3 3 3 3 4 4 5 4 5 5 4 5 6 8 9 9 8 6 6 6 5 6 7 8 8 8 10 12 13 14 13
15 16 15 15 16 16 16 16 15 15 14 14 12 12 12 12 11 10 10 9 9 8 7 6 5 5 4 4 3 3 3 3 3 3 2 2 2 2 3 3 3 3 3 3 3 3 3 3 3 3 3 3 4 4 3 3 3 4 5 5 5 5 5 6 6 6 6 6 6 8 9 8 7 6 7 7 7 7 7 7 7 8 10 11 13
16 17 16 16 17 17 16 16 16 14 14 14 12 12 12 12 11 10 10 9 8 8 7 6 5 5 4 3 3 2 2 2 2 2 2 3 3 3 3 3 3 3 3 4 3 3 3 3 3 3 4 4 4 4 3 3 4 4 5 5 6 6 6 7 7 7 7 7 5 5 7 9 9 7 7 7 7 7 6 6 6 6 6 7 10
17 18 17 16 17 17 17 17 16 15 14 13 12 12 13 13 11 10 9 8 8 7 6 6 5 5 4 3 3 2 2 2 2 2 2 3 3 3 3 3 3 3 3 3 3 4 3 3 3 3 4 4 3 4 3 3 4 5 5 5 6 7 7 7 8 8 8 8 7 6 6 7 8 9 7 7 7 8 7 7 7 7 7 6 7
17 18 17 18 18 18 18 17 16 16 15 14 13 14 14 13 12 10 9 8 7 6 5 6 5 5 4 3 3 2 1 1 2 3 3 3 4 4 3 3 4 3 3 3 4 4 4 4 3 3 4 4 3 4 4 4 4 5 5 5 7 8 8 8 8 8 8 8 8 7 7 6 6 8 8 8 8 9 9 9 9 9 9 9 8
17 18 18 19 19 18 19 17 16 16 16 15 14 14 14 14 12 11 9 8 6 5 5 5 5 5 4 3 2 2 2 2 2 3 3 3 4 4 4 4 4 4 4 4 4 4 4 4 4 4 4 4 4 3 3 4 4 4 4 5 7 8 8 9 9 9 9 9 9 8 8 8 7 7 7 8 9 10 10 10 11 11 10 10 10
16 18 19 19 19 19 18 17 17 16 15 15 13 13 13 13 12 11 9 7 6 5 5 5 5 4 3 2 1 1 2 3 3 3 4 4 4 5 5 4 5 4 4 4 4 4 4 4 4 4 4 4 4 3 3 3 4 4 4 5 7 8 9 9 9 9 9 9 9 9 9 9 9 9 8 8 9 10 11 10 11 11 11 11 11
17 18 20 20 20 20 19 18 18 17 15 14 13 13 13 12 11 10 8 7 7 6 5 5 5 4 2 2 2 2 3 3 3 4 5 5 5 6 5 4 5 5 5 5 4 4 3 3 3 4 3 4 4 3 2 3 5 4 6 7 9 9 10 10 10 9 9 9 9 9 9 9 9 9 9 9 9 10 11 12 13 13 13 12 12
18 19 21 21 21 20 19 19 18 17 15 14 13 13 13 11 10 9 8 7 6 6 5 4 4 3 2 3 3 3 4 4 4 5 6 5 5 5 5 4 4 5 5 4 4 3 3 2 2 3 3 3 3 2 1 4 6 5 7 9 10 10 10 10 10 9 9 9 9 9 9 9 9 10 10 10 10 11 11 12 13 13 14 14 13
18 19 21 21 21 21 20 19 18 16 14 14 13 13 13 11 10 9 7 7 6 5 4 3 3 2 2 3 4 4 5 5 6 6 6 5 5 5 4 3 4 5 4 4 4 3 3 3 3 3 3 2 2 0 2 6 8 7 8 10 11 11 10 10 10 10 9 9 9 9 8 9 9 10 10 10 10 12 12 13 12 11 12 16 16
19 20 21 21 20 21 20 19 17 15 14 14 13 13 13 11 10 10 8 8 6 5 4 4 4 3 4 4 5 6 6 6 6 5 6 5 4 3 2 3 4 4 3 3 3 3 3 3 2 2 2 1 2 2 5 8 9 8 9 11 11 11 11 11 11 10 10 9 9 8 8 8 8 9 9 9 10 11 12 13 13 12 11 13 17
19 21 23 23 22 22 21 20 17 14 14 16 15 15 15 13 11 12 11 9 8 7 6 5 5 5 5 6 6 6 7 7 6 6 6 5 3 3 3 4 4 3 3 3 3 3 2 2 1 1 1 0 2 3 6 9 9 8 8 9 10 11 11 11 11 11 10 9 9 8 8 7 7 8 8 9 9 10 11 12 12 13 12 12 13
19 22 23 22 21 21 21 20 17 15 15 16 16 16 16 14 13 12 12 10 10 9 7 7 8 8 9 9 8 8 9 9 8 6 4 4 4 4 4 4 3 3 3 3 3 3 2 1 0 1 2 3 4 4 5 7 7 7 7 7 7 7 9 11 11 11 10 9 8 8 7 7 7 7 7 8 9 10 10 11 12 13 13 12 12
20 21 20 18 18 19 19 18 18 17 16 16 16 16 15 14 12 12 11 10 11 11 9 10 11 12 14 13 11 10 9 8 6 4 4 5 5 4 3 3 3 3 3 3 3 3 2 1 1 2 3 4 5 4 3 5 5 6 8 5 5 6 6 8 10 10 10 9 8 8 7 7 7 7 7 7 8 9 10 10 12 13 13 12 11
19 20 20 20 18 19 19 19 19 18 16 15 15 14 13 12 10 10 11 10 10 12 11 13 14 15 15 14 12 9 7 6 4 4 4 4 4 3 3 3 3 3 2 2 2 3 3 3 3 2 2 3 5 5 3 2 4 3 5 4 4 5 3 7 9 8 8 8 8 8 7 6 6 7 7 8 8 8 9 9 10 11 11 10 10
20 21 24 25 20 18 21 20 17 17 16 16 15 14 13 12 11 10 11 11 11 13 13 15 17 16 15 14 11 9 7 5 4 4 4 4 3 3 3 3 3 3 3 3 4 4 4 4 4 3 3 3 5 6 6 4 1 1 3 3 3 3 1 9 10 6 5 6 7 7 7 6 6 6 7 8 8 7 7 8 8 9 9 9 10
23 22 23 28 25 19 20 17 14 15 16 17 16 15 14 14 14 13 13 13 13 13 14 17 17 15 14 13 11 9 6 5 5 5 5 4 4 4 4 4 4 5 5 5 6 6 6 6 5 4 4 4 5 6 8 9 8 7 7 6 3 4 4 6 7 4 6 6 6 6 7 7 5 6 7 8 8 8 7 7 7 8 8 9 9
26 21 19 25 25 18 17 17 15 15 16 18 17 16 16 16 16 15 16 16 15 15 15 18 18 16 14 13 11 9 7 5 6 5 4 4 5 5 5 5 6 6 6 7 7 6 6 6 5 5 5 4 3 5 6 7 9 10 11 10 10 9 7 3 1 3 6 5 5 6 6 7 6 5 5 7 8 7 7 7 7 8 8 9 9
24 21 22 26 25 19 19 19 17 16 18 19 18 17 18 18 17 16 16 16 16 17 19 19 18 17 15 13 11 9 6 5 5 4 4 5 5 6 6 6 7 7 7 7 8 8 7 7 7 6 6 5 4 5 6 6 7 8 9 10 11 11 10 9 7 3 1 4 5 5 5 5 6 6 4 5 7 7 7 7 7 8 8 8 9
22 21 24 27 27 23 20 20 20 20 20 19 19 20 19 18 18 17 16 14 15 20 22 21 19 17 15 13 11 7 5 4 4 4 5 6 6 6 7 7 8 7 8 9 9 9 9 9 9 8 8 9 8 7 7 7 6 6 5 6 7 8 9 9 8 7 4 3 3 3 3 3 4 5 4 3 5 6 7 7 7 8 9 8 9
22 20 22 25 26 26 24 24 23 22 20 20 20 21 20 19 19 19 18 16 18 22 22 20 18 17 15 13 10 7 4 3 4 5 6 6 7 7 8 8 9 9 9 10 10 10 10 11 11 12 12 11 11 10 9 8 8 7 6 5 5 5 6 7 7 8 6 5 4 4 3 1 2 3 2 1 2 3 5 7 7 8 9 9 10
22 21 23 23 24 26 27 25 23 21 21 21 21 21 21 20 19 20 19 20 22 24 22 19 18 16 16 13 10 7 5 4 5 6 6 7 7 8 8 9 9 10 10 10 10 10 10 12 13 14 14 12 12 12 12 11 10 10 9 8 8 8 7 7 8 8 7 6 4 4 5 4 2 3 2 1 1 2 5 7 7 8 9 10 12
Wind_Direction
149 147 151 163 164 170 176 170 156 152 153 153 152 147 147 145 147 149 147 143 140 138 137 133 130 129 126 125 124 121 118 115 112 107 101 89 79 76 82 91 99 101 96 100 103 105 104 108 111 103 101 98 96 97 96 96 96 91 87 88 84 83 84 79 75 74 73 73 72 70 66 63 59 52 48 46 44 45 55 61 62 51 17 24 28
148 147 148 160 163 169 175 170 156 154 153 152 152 146 144 144 146 147 147 144 140 138 136 134 132 130 127 127 125 122 118 114 109 105 96 85 78 78 86 93 98 101 99 101 103 106 106 107 110 108 105 102 102 102 99 96 94 91 91 94 89 83 81 78 76 74 73 75 73 63 53 51 51 48 45 43 42 40 49 57 66 56 20 30 27
142 144 146 160 165 167 174 171 157 155 152 151 153 146 146 145 146 146 146 143 140 139 137 136 134 133 130 128 126 123 118 113 108 103 93 86 81 82 91 96 98 101 101 102 104 105 106 108 110 110 108 108 106 101 98 95 95 96 95 94 89 86 84 80 76 74 73 75 72 55 37 37 38 41 42 39 40 35 38 39 49 47 21 36 29
140 140 145 160 165 166 175 172 159 155 151 152 153 149 148 145 146 146 146 144 141 140 139 137 135 133 131 129 127 123 118 113 106 104 100 93 86 86 92 97 101 103 104 105 106 107 108 111 111 111 108 107 104 100 98 96 95 95 92 86 82 84 85 82 78 75 73 73 73 63 44 46 36 34 41 38 37 35 36 33 31 33 23 33 29
139 139 145 155 161 168 177 173 160 154 151 152 153 151 148 146 147 147 147 144 141 140 139 138 136 133 131 131 128 124 118 110 105 105 105 99 92 90 93 96 102 106 108 110 111 110 111 112 111 110 108 106 104 101 97 94 92 90 87 82 76 77 77 76 76 76 74 68 67 69 62 70 47 30 38 37 34 34 34 36 31 29 27 31 30
137 139 144 151 156 167 177 173 162 153 151 154 154 152 148 146 147 148 147 143 141 140 140 139 135 133 132 131 129 125 117 109 105 104 102 102 98 92 92 94 101 107 110 116 117 114 113 113 113 112 109 107 104 101 97 93 89 85 80 75 68 69 69 69 71 72 69 59 55 65 59 63 62 32 35 38 31 34 34 36 33 28 30 34 45
135 138 144 151 156 166 177 173 161 153 154 156 152 150 148 146 149 150 146 143 142 140 139 137 135 133 133 132 129 124 117 113 108 104 101 103 101 94 92 93 100 107 110 117 120 117 115 114 114 113 110 106 103 101 99 94 85 76 70 66 64 66 67 68 68 68 67 58 47 62 62 57 69 38 35 42 33 34 36 38 30 23 27 34 62
134 138 144 151 155 165 174 170 158 154 154 150 147 146 146 149 151 149 146 143 141 139 139 137 136 135 134 131 128 123 119 115 109 103 102 103 101 95 94 97 104 110 113 116 119 120 118 117 115 113 110 106 104 101 97 86 74 67 64 63 64 67 69 71 68 69 66 63 56 55 58 54 64 45 35 45 42 38 39 38 19 9 18 22 53
135 138 143 148 155 166 170 166 156 153 149 143 143 144 147 151 150 148 146 144 142 140 139 139 137 134 132 130 127 124 120 114 109 104 103 101 94 89 89 101 114 114 118 120 121 122 120 119 116 115 113 108 103 97 87 77 69 64 62 62 63 67 69 69 67 69 63 63 67 50 54 60 59 46 38 46 48 43 44 46 21 358 8 14 30
134 136 142 146 153 164 167 164 153 146 143 141 144 146 150 151 150 150 148 146 144 140 138 136 134 132 131 130 129 126 123 120 118 114 107 99 94 90 89 103 116 113 117 123 124 124 122 121 119 120 116 107 98 87 79 72 67 62 61 61 62 65 65 66 67 70 68 71 71 57 66 71 63 46 42 49 49 46 48 53 51 29 16 17 22
134 136 141 145 152 162 166 161 149 141 141 143 147 149 152 153 152 149 147 146 142 138 135 134 132 132 131 131 130 128 127 126 125 121 114 108 102 100 103 110 116 113 112 118 122 123 123 122 124 126 116 103 91 81 78 73 67 64 62 61 61 60 60 66 64 66 77 73 68 65 55 54 58 42 41 50 47 44 42 41 40 32 23 22 21
135 137 141 144 151 162 164 155 143 140 142 146 150 152 154 153 149 143 145 144 139 136 133 133 133 134 133 131 131 131 131 132 131 127 122 120 109 108 119 117 117 118 116 117 121 125 125 126 132 129 113 99 88 83 81 78 72 68 66 64 63 58 60 67 61 53 74 66 55 57 28 33 48 29 35 46 44 39 36 34 32 25 20 21 22
136 139 143 143 150 162 162 148 141 143 147 151 152 154 154 149 146 145 146 141 136 136 136 138 140 141 139 137 138 136 139 140 137 134 131 130 121 116 120 115 116 120 122 123 127 133 132 133 135 125 112 101 91 89 88 86 82 77 73 67 63 60 60 60 53 47 54 48 33 37 34 35 31 6 26 41 40 35 31 31 28 24 19 19 21
138 141 146 145 151 162 157 145 144 148 150 154 155 156 152 149 150 148 144 139 140 143 145 144 140 137 136 142 145 143 151 150 143 137 133 133 127 122 119 116 118 120 125 131 137 143 139 135 131 123 117 109 100 98 95 91 88 88 82 67 59 56 58 49 40 47 33 25 13 347 9 24 346 354 16 30 34 31 26 26 24 21 18 17 19
140 142 146 146 150 158 155 148 149 151 154 156 156 155 152 153 152 146 143 141 144 145 142 132 123 121 124 142 146 146 153 149 144 137 133 131 126 126 124 120 119 121 127 130 134 139 138 135 132 129 125 118 110 103 100 94 87 91 90 66 51 50 56 46 16 28 18 360 355 325 333 326 318 351 5 8 21 24 18 19 17 14 12 13 13
141 144 146 147 149 155 155 153 153 154 156 157 157 157 154 153 149 145 145 145 145 140 130 120 117 115 113 117 119 127 135 138 143 138 136 133 128 130 128 124 121 120 124 126 129 133 137 139 138 138 130 125 116 105 104 94 77 84 89 49 32 33 44 43 3 5 13 358 347 325 324 310 316 340 354 352 357 3 9 10 8 6 4 4 4
145 147 147 150 150 154 157 157 157 155 157 157 158 159 155 151 149 148 146 146 145 133 124 122 121 117 110 102 96 97 104 117 128 129 132 134 132 133 132 129 124 122 124 126 130 134 139 142 142 143 139 135 127 117 113 101 81 59 46 360 358 354 11 21 352 347 5 354 344 331 329 314 313 331 340 341 341 343 351 356 358 357 353 352 353
150 152 151 152 152 156 158 159 160 157 157 156 159 161 155 152 154 150 146 147 144 133 126 123 124 120 110 99 91 86 88 97 107 116 123 130 134 135 134 130 128 127 126 126 129 133 136 141 144 148 150 150 148 144 141 138 126 42 335 320 325 325 346 353 331 329 350 344 337 335 338 320 313 325 330 330 332 333 336 338 342 341 337 338 340
155 154 154 154 154 157 158 162 164 161 158 157 162 161 156 155 153 148 146 147 141 136 131 129 127 116 106 100 93 85 84 86 93 105 113 119 124 132 135 132 132 131 129 128 126 129 133 139 145 151 160 164 165 163 160 156 149 168 318 302 300 310 333 336 321 320 332 338 341 345 345 324 321 325 321 324 323 329 338 333 325 318 318 321 324
156 157 158 158 159 159 159 164 166 164 161 159 161 159 156 155 150 147 146 145 144 140 135 135 127 115 113 106 95 91 88 81 83 95 106 117 125 134 140 138 138 137 134 132 129 132 134 138 146 155 163 169 171 163 155 148 142 139 334 293 313 334 328 325 318 321 328 335 348 354 343 326 329 329 320 319 317 325 326 316 318 317 318 315 308
159 162 162 162 163 163 163 164 165 166 161 156 156 155 156 153 149 149 147 144 142 133 129 129 122 118 115 102 94 99 98 86 88 96 99 111 127 137 143 144 144 143 140 138 136 137 139 145 149 156 165 171 167 157 149 135 119 103 25 359 360 338 318 323 319 323 324 337 359 344 332 332 338 338 331 324 315 320 308 303 323 318 315 316 308
164 165 165 166 165 165 166 164 164 166 160 155 154 156 155 152 151 147 139 137 131 125 127 131 131 127 111 97 104 114 110 105 104 106 105 112 126 134 141 147 148 146 144 143 142 143 146 152 156 160 164 168 168 173 186 178 138 21 11 359 337 318 327 328 325 329 329 357 11 337 325 336 337 337 337 333 325 319 296 299 322 317 312 317 316
169 168 166 168 166 166 169 165 165 165 160 156 155 156 155 153 151 142 135 135 134 133 139 143 144 139 123 119 129 129 125 121 116 119 121 121 123 129 137 143 145 146 145 139 138 144 144 151 163 157 135 155 189 215 221 203 200 333 349 320 315 328 333 329 332 337 352 16 8 337 333 340 336 336 330 328 333 331 301 296 307 314 320 322 322
172 170 165 168 168 167 169 166 166 165 162 159 155 155 156 154 149 143 141 140 140 144 147 148 147 144 141 141 138 132 128 126 127 125 121 121 120 121 124 127 133 140 135 130 134 124 109 124 146 138 106 206 225 246 261 260 263 298 317 315 325 335 330 336 346 347 15 23 359 347 352 347 346 340 328 319 323 336 309 297 302 312 322 326 327
167 164 163 168 168 166 168 166 166 166 164 162 159 157 155 153 150 144 143 143 144 151 154 152 153 153 150 145 140 134 130 132 137 135 131 137 136 129 125 125 133 138 130 134 159 138 117 138 140 136 169 219 251 301 309 312 311 313 325 332 337 339 334 349 360 359 23 27 5 4 356 349 351 343 337 330 324 335 317 301 307 314 318 321 323
162 162 162 168 168 166 168 168 167 167 167 166 163 160 158 155 152 146 144 150 154 158 159 159 160 158 155 151 149 145 142 142 139 138 143 146 146 144 141 141 145 146 142 144 151 143 134 143 136 136 162 165 71 345 325 320 324 332 348 360 355 355 349 1 14 12 33 36 17 6 358 352 351 347 350 352 352 358 352 330 320 317 320 320 321
161 163 163 167 169 168 169 168 168 168 167 168 168 166 164 159 153 149 151 160 163 163 163 164 163 158 162 165 161 154 149 147 140 142 149 151 150 146 141 139 141 140 143 133 116 110 63 84 92 106 118 80 39 343 329 326 334 342 358 13 6 6 4 9 23 26 47 51 34 15 10 8 8 11 14 21 29 31 28 18 1 351 349 345 342
161 163 165 169 171 170 169 170 169 170 169 170 172 169 166 159 153 154 161 167 166 168 169 166 164 165 172 171 161 155 150 141 138 146 150 159 154 142 133 129 129 127 122 113 98 74 39 31 40 33 334 331 348 344 337 337 345 349 1 16 9 9 11 14 33 45 63 63 51 41 38 40 45 44 45 49 51 49 46 43 39 34 27 21 13
164 165 168 170 173 173 170 171 171 173 172 172 173 169 165 160 157 162 169 171 169 169 169 169 169 171 172 162 154 148 138 126 130 144 145 155 153 132 118 111 110 107 99 94 83 69 54 27 12 3 347 344 354 4 356 344 346 358 6 19 19 16 19 28 48 62 77 74 64 64 69 69 69 66 63 68 70 68 64 61 58 52 44 37 31
171 170 172 171 173 175 174 173 173 177 175 172 173 167 164 161 161 167 170 170 170 169 169 173 174 168 163 153 149 142 127 121 127 135 134 139 140 120 103 98 94 86 86 84 72 67 59 35 18 3 358 355 360 5 356 341 344 7 16 22 30 35 42 48 56 67 81 81 70 68 73 80 82 77 78 85 90 88 82 76 71 64 57 48 40
174 174 175 172 173 175 176 173 173 178 175 172 172 167 163 161 164 168 169 169 167 168 172 174 168 161 161 152 151 144 126 124 130 128 131 130 120 108 98 95 83 70 65 60 57 55 51 40 25 9 2 359 360 360 353 348 350 12 27 31 40 51 61 63 66 71 81 87 80 70 65 67 78 87 91 92 95 94 87 81 80 80 75 66 56
175 178 176 172 172 174 175 174 175 177 174 172 171 169 165 163 169 171 167 168 166 168 172 170 167 165 160 157 158 140 125 135 138 128 126 128 121 112 101 91 80 67 56 51 46 42 44 39 24 12 6 2 359 356 355 1 7 20 33 45 55 63 72 74 77 79 83 88 89 82 67 53 49 65 88 91 89 84 79 79 75 79 85 82 73
175 177 174 169 171 172 172 172 176 177 175 173 173 172 170 167 172 174 169 169 169 170 171 171 174 171 163 169 164 134 135 162 158 141 131 132 125 117 109 98 87 74 57 48 39 36 41 34 20 11 4 359 358 360 3 15 28 35 37 53 68 72 76 79 80 81 83 85 82 79 75 58 41 37 50 67 80 77 68 67 62 64 66 67 74
173 174 172 169 170 170 171 171 174 178 177 177 176 172 170 170 172 175 174 173 176 176 173 174 177 177 176 174 160 138 160 183 170 153 140 136 125 117 111 95 82 70 53 41 37 35 32 23 13 4 359 358 2 7 12 20 29 42 43 58 75 78 78 79 79 80 78 77 75 71 66 63 55 43 37 37 53 62 56 51 46 47 47 46 51
172 171 172 170 170 172 172 171 173 178 179 179 177 173 170 170 171 174 175 176 183 186 178 178 183 182 176 167 162 162 176 179 171 159 142 133 122 112 102 85 72 60 46 39 35 29 21 13 4 359 355 351 359 6 10 18 26 46 58 69 79 82 81 78 76 76 74 72 69 66 61 57 55 53 45 35 33 36 39 38 33 31 30 33 35
170 168 169 170 172 173 172 171 173 176 179 180 176 174 172 168 169 173 175 177 184 187 179 178 182 178 168 165 173 162 161 162 158 153 140 130 121 106 94 83 75 61 43 31 19 14 6 356 358 4 356 339 339 346 357 36 57 67 82 85 83 82 80 77 73 71 70 70 67 62 60 55 51 49 46 42 31 22 24 29 27 23 20 20 21
167 166 170 172 174 174 171 170 172 173 175 178 175 177 177 169 168 170 173 181 187 181 174 175 176 172 164 157 153 132 136 145 142 142 135 125 115 102 93 84 70 45 23 12 4 8 358 344 354 9 6 331 318 322 349 80 93 92 92 87 83 81 78 75 73 72 70 68 66 62 58 54 50 47 44 41 37 26 20 26 27 21 19 20 18
169 170 173 176 175 173 171 169 170 171 172 176 176 177 178 173 170 169 171 178 180 170 166 170 170 166 155 146 140 133 130 133 131 127 121 112 105 99 93 78 51 20 8 5 6 16 14 8 1 353 354 328 313 306 260 114 113 112 97 87 82 81 79 78 74 72 71 68 65 62 59 55 50 48 47 43 40 36 29 28 28 19 15 23 27
170 171 175 179 176 170 169 167 167 169 170 176 177 173 176 177 170 165 164 166 166 162 167 169 161 153 150 145 136 132 128 123 120 114 109 106 100 93 80 50 24 6 6 8 360 1 8 13 8 348 344 331 344 296 168 122 117 118 100 87 83 82 79 77 76 72 70 67 64 62 59 56 52 49 49 47 42 39 37 34 32 25 14 17 25
172 172 175 181 175 168 168 165 165 168 169 172 171 166 171 177 172 166 166 167 166 161 167 162 150 150 151 146 136 132 129 119 112 108 109 108 101 84 41 13 11 7 7 4 349 346 356 358 351 348 333 327 52 114 147 125 120 121 107 91 83 82 80 76 74 71 67 64 62 60 59 56 53 51 49 48 45 40 39 36 32 30 22 14 17
173 172 177 181 174 168 168 165 164 168 168 169 169 166 169 175 178 178 172 168 165 161 162 157 148 147 141 133 130 128 125 122 120 119 109 98 79 42 17 13 16 13 360 351 344 342 354 4 18 29 359 117 86 116 147 139 135 131 120 108 94 83 79 78 72 69 66 63 63 61 60 59 54 52 50 48 47 43 40 38 33 31 28 22 17
172 176 180 179 173 168 168 165 165 168 168 170 173 172 173 178 182 179 170 164 165 163 156 155 160 160 149 137 136 138 135 131 127 118 86 50 33 24 22 21 18 6 352 351 355 355 360 23 133 93 84 95 95 118 156 166 170 163 152 139 122 102 86 80 72 68 66 62 64 63 62 62 58 53 52 51 49 47 44 40 36 33 30 27 22
173 178 175 170 172 172 169 166 168 170 171 174 176 175 176 180 179 171 166 162 166 169 160 160 171 169 157 147 144 147 141 131 115 86 46 26 20 22 25 19 12 2 355 359 10 22 39 84 137 116 101 98 92 102 165 222 238 191 179 183 162 154 131 103 84 71 68 66 65 65 64 63 60 56 53 53 50 47 45 40 35 33 29 25 20
169 173 173 174 178 175 174 175 173 171 172 179 180 178 177 173 164 160 164 161 162 170 166 162 166 161 152 144 143 147 138 122 95 64 46 19 7 22 30 18 11 7 15 26 37 54 71 96 110 100 102 106 92 82 102 241 281 238 209 227 192 192 183 132 116 93 79 72 67 66 65 64 61 57 54 50 47 45 40 36 32 28 25 20 15
159 168 175 181 183 179 185 184 175 173 175 182 181 173 168 157 146 145 154 153 151 158 158 156 156 151 146 141 141 145 134 115 89 62 44 16 10 30 41 37 34 40 57 65 68 74 79 90 98 90 81 89 99 87 71 71 42 313 325 319 222 227 96 132 136 112 94 82 74 72 65 64 62 56 55 48 42 41 33 31 29 22 21 16 12
160 169 172 181 185 182 189 189 177 177 179 182 180 170 167 163 157 155 156 154 151 157 159 155 152 148 148 147 142 137 124 102 67 44 33 33 43 54 64 69 65 67 73 75 77 79 80 83 83 86 86 81 99 101 77 69 73 72 50 35 32 12 52 146 164 125 116 101 81 79 66 64 66 59 56 48 41 38 29 25 22 19 17 13 10
167 169 163 179 189 184 184 187 183 182 180 182 182 177 178 178 175 171 167 164 160 163 162 157 156 154 153 152 143 130 111 72 42 29 34 58 75 79 83 82 80 79 77 77 78 77 79 82 82 84 89 87 98 108 95 79 72 66 61 63 62 47 42 61 131 130 145 125 94 93 78 65 62 62 57 46 40 35 27 22 17 14 12 8 6
167 167 162 173 190 192 183 182 183 183 182 184 185 186 186 184 182 178 176 174 165 162 163 164 164 160 153 146 137 120 91 56 41 44 72 87 92 90 89 87 86 83 79 80 79 81 83 83 85 84 82 83 85 98 102 97 92 77 67 68 66 59 53 46 31 15 155 135 124 120 99 81 67 61 57 44 36 29 23 17 10 7 2 360 359
167 169 169 171 184 190 183 182 186 186 184 183 186 189 188 185 186 181 173 167 159 160 164 165 165 163 155 145 138 119 85 61 64 87 98 98 98 96 95 93 90 87 86 88 86 88 90 87 87 88 88 88 82 87 97 97 99 94 81 77 72 68 65 55 44 33 33 75 111 109 109 135 102 61 49 45 33 25 18 9 4 4 358 354 351
172 169 171 170 177 183 182 184 186 186 185 184 187 191 188 185 184 177 166 157 156 159 160 158 160 163 158 149 141 125 101 90 97 105 106 104 103 101 100 98 95 95 94 94 94 92 93 94 96 95 93 91 85 85 89 89 87 80 75 80 81 78 73 61 52 48 47 52 68 71 61 94 117 75 59 38 8 3 4 360 357 358 356 353 349
173 170 174 170 173 181 184 183 181 184 186 186 191 192 188 183 178 174 168 163 161 159 157 159 163 163 161 156 147 131 118 119 117 112 109 108 109 106 104 104 101 101 100 98 98 96 94 96 98 97 93 89 88 86 83 83 83 79 75 75 74 70 68 63 51 46 48 46 47 54 43 31 50 72 67 25 342 345 355 354 353 354 351 348 346